Regional Weather Roundup
Issued by NWS

Home | Current Version | Previous Version | Text Only | Print | Product List | Glossary Off
Versions: 1 2 3 4 5 6 7 8 9 10 11 12 13 14 15 16 17 18 19 20 21 22 23 24 25 26 27

000
ASUS45 KCYS 200810
RWRWY

WYOMING REGIONAL WEATHER ROUNDUP
NATIONAL WEATHER SERVICE CHEYENNE WY
200 AM MDT SUN MAY 20 2018

NOTE:  "FAIR" INDICATES FEW OR NO CLOUDS BELOW 12,000 FEET
WITH NO SIGNIFICANT WEATHER AND/OR OBSTRUCTIONS TO VISIBILITY.

WYZ001-200900-
YELLOWSTONE NATIONAL PARK

CITY           SKY/WX    TMP DP  RH WIND       PRES   REMARKS
LK YELLOWSTONE   N/A     30  28  92 CALM      30.22F
W YELLOWSTONE  NOT AVBL

$$
WYZ002>013-054>058-071-098>099-200900-
NORTHERN WYOMING

CITY           SKY/WX    TMP DP  RH WIND       PRES   REMARKS
JACKSON        CLOUDY    44  39  82 N7        30.16F
CODY           FAIR      40  37  89 CALM      30.16F
GREYBULL       MOCLDY    50  43  77 S3        30.14F
WORLAND        CLOUDY    49  42  77 SE7       30.15F
SHERIDAN       FAIR      39  36  89 CALM      30.15F
BUFFALO        FAIR      44  40  85 S17       30.17F
GILLETTE       CLOUDY    46  36  68 S14G22    30.22S
NEWCASTLE      FAIR      39  37  93 CALM      30.27F

$$
WYZ014>020-022>026-101>103-200900-
CENTRAL WYOMING

CITY           SKY/WX    TMP DP  RH WIND       PRES   REMARKS
BIG PINEY      CLOUDY    44  39  82 CALM      30.20F
PINEDALE       FAIR      36  36 100 NW6       30.20F WCI  31
DUBOIS         CLOUDY    41  37  87 CALM      30.21F
LANDER         CLOUDY    45  41  86 N3        30.17F
RIVERTON       CLOUDY    42  39  89 NE7       30.19F
CASPER         CLOUDY    41  40  96 E14       30.21F
DOUGLAS        CLOUDY    40  39  97 SE10      30.25F WCI  33

$$
WYZ021-027>030-104>119-200900-
SOUTHERN WYOMING

CITY           SKY/WX    TMP DP  RH WIND       PRES   REMARKS
EVANSTON       FAIR      44  39  82 E16G22    30.12F
KEMMERER       FAIR      41  37  87 NE16      30.18F
FORT BRIDGER   FAIR      41  40  98 NE9       30.18F
ROCK SPRINGS   FAIR      39  36  89 E7        30.18S WCI  34
DIXON          FAIR      39  36  88 NE3       30.18S
RAWLINS        FAIR      38  36  92 NE13      30.19F WCI  30
SARATOGA       FAIR      36  36 100 CALM      30.19S
LARAMIE        FAIR      35  34  96 SE12      30.22F WCI  27
CHEYENNE       CLOUDY    38  38 100 E3        30.25F
TORRINGTON     CLOUDY    43  41  93 CALM      30.26S
PINE BLUFFS    CLOUDY    37  37 100 CALM      30.27S

$$




USA.gov is the U.S. government's official web portal to all federal, state and local government web resources and services.